Regional Weather Roundup
Issued by NWS

Home | Current Version | Previous Version | Text Only | Print | Product List | Glossary Off
Versions: 1 2 3 4 5 6 7 8 9 10 11 12 13 14 15 16 17 18 19 20 21 22 23 24 25 26 27 28 29 30 31 32 33 34 35 36 37 38 39 40 41 42 43 44 45 46 47 48 49 50

000
ASUS43 KOAX 012310
RWRNE

WEATHER ROUNDUP FOR NEBRASKA
NATIONAL WEATHER SERVICE OMAHA NE
600 PM CDT TUE SEP 01 2015

NOTES: SATELLITE DATA IS BEING USED TO AUGMENT CLOUD COVER ABOVE
       12000 FEET.
       "FAIR" INDICATES FEW OR NO CLOUDS BELOW 12,000 FEET WITH NO
       SIGNIFICANT WEATHER AND/OR OBSTRUCTIONS TO VISIBILITY.

  * THESE STATIONS DO NOT REPORT WEATHER SUCH AS RAIN...SNOW OR FOG.

NEZ001>004-019>022-054>056-020000-
NEBRASKA PANHANDLE

CITY           SKY/WX    TMP DP  RH WIND       PRES   REMARKS
SCOTTSBLUFF    SUNNY     92  41  17 S6        29.91S
ALLIANCE       SUNNY     93  39  15 W14       29.90S
CHADRON        SUNNY     95  36  12 W9G18     29.83S HX  90
KIMBALL        SUNNY     88  37  17 NW5G16    29.97S
SIDNEY         SUNNY     93  39  15 S16       29.96S
$$

NEZ057>060-069>072-079>082-020000-
SOUTHWEST NEBRASKA

CITY           SKY/WX    TMP DP  RH WIND       PRES   REMARKS
NORTH PLATTE   SUNNY     91  57  31 SW5       29.88S
IMPERIAL       SUNNY     93  44  18 SE8       29.92S
LEXINGTON      MOSUNNY   89  65  44 SE13      29.89S HX  90
MCCOOK         MOSUNNY   94  56  27 E5        29.89S HX  92
OGALLALA       SUNNY     93  50  23 S6        29.90S HX  90
$$

NEZ005>010-023>029-035>040-094-020000-
NORTH CENTRAL NEBRASKA

CITY           SKY/WX    TMP DP  RH WIND       PRES   REMARKS
VALENTINE      SUNNY     93  54  26 S16G24    29.83S HX  91
AINSWORTH      SUNNY     89  61  38 SE8       29.87S
BROKEN BOW     SUNNY     90  64  42 S9        29.88S HX  91
O`NEILL        MOSUNNY   87  68  53 S7        29.86S HX  90
ORD            MOSUNNY   89  64  43 S12       29.85S HX  90
THEDFORD       SUNNY     92  58  32 S13       29.88F HX  91
$$

NEZ041-046>049-061>064-073>077-083>087-020000-
SOUTH CENTRAL NEBRASKA

CITY           SKY/WX    TMP DP  RH WIND       PRES   REMARKS
GRAND ISLAND   MOSUNNY   91  63  39 SW14      29.87F HX  92
AURORA         MOSUNNY   89  66  46 S10G17    29.87S HX  91
HASTINGS       PTSUNNY   91  65  41 SW7       29.88S HX  93
HEBRON         MOSUNNY   88  58  35 S13G18    29.88S
HOLDREGE       MOSUNNY   88  60  38 SE9       29.90S
KEARNEY *      PTSUNNY   88  63  42 S7        29.89R
YORK           SUNNY     86  66  51 S13G18    29.88R
$$

NEZ011>018-030>034-042>045-020000-
NORTHEAST NEBRASKA

CITY           SKY/WX    TMP DP  RH WIND       PRES   REMARKS
NORFOLK        PTSUNNY   87  71  58 SE12      29.85F HX  93
ALBION         PTSUNNY   85  69  57 S7        29.87S
BLAIR          PTSUNNY   86  71  61 SE9       29.90F HX  91
COLUMBUS *     MOSUNNY   88  68  51 S9        29.86S HX  91
FREMONT        PTSUNNY   87  68  52 SE8       29.89S HX  90
TEKAMAH        PTSUNNY   85  74  69 SE9       29.88S HX  92
WAYNE          PTSUNNY   84  74  72 SE9       29.87S HX  91
$$

NEZ050>053-065>068-078-088>093-020000-
SOUTHEAST NEBRASKA

CITY           SKY/WX    TMP DP  RH WIND       PRES   REMARKS
LINCOLN        MOSUNNY   88  66  48 S15       29.88F HX  90
OMAHA EPPLEY   PTSUNNY   88  73  61 SE16      29.89F HX  95
BEATRICE       PTSUNNY   88  65  46 S14       29.91R
FALLS CITY     MOSUNNY   89  68  49 S10       29.92F HX  93
NEBRASKA CITY  MOSUNNY   87  61  41 S10       29.92S
PLATTSMOUTH    MOSUNNY   84  67  55 SE10      29.91S
$$

NEZ044-045-051>053-067-020000-
OMAHA AREA

CITY           SKY/WX    TMP DP  RH WIND       PRES   REMARKS
OMAHA EPPLEY   PTSUNNY   88  73  61 SE16      29.89F HX  95
BLAIR          PTSUNNY   86  71  61 SE9       29.90F HX  91
FREMONT        PTSUNNY   87  68  52 SE8       29.89S HX  90
MILLARD        PTSUNNY   88  75  65 SE8       29.89S HX  97
OFFUTT AFB     PTSUNNY   86  71  60 SE12      29.89F HX  91
PLATTSMOUTH    MOSUNNY   84  67  55 SE10      29.91S
WAHOO          FAIR      86  70  58 S9        29.88S HX  90
$$



USA.gov is the U.S. government's official web portal to all federal, state and local government web resources and services.